STARLINK-35891 (67045 NORAD) Tracking and Keplerian Element Data

This shows tracking and keplerian element data for the satellite.

Feedback or suggestion? Click here.




ElementValue
Catalog67045
NameSTARLINK-35891
Epoch Orbit143
Epoch Day354.25003472
Epoch Year2025
RAAN136.2181
Inclination43
Eccentricity0.0001737
Argument of Perigee263.0617
Mean Anonmoly353.0618
Mean Motion15.89095387
Decay Rate-0.01411191
L11 67045U 25294R 25354.25003472 -.01411191 00000+0 -54383-2 0 9990
L22 67045 43.0000 136.2181 0001737 263.0617 353.0618 15.89095387 1435



Live tracking and technical data element details for STARLINK-35891 (NORAD 67045). STARLINK-35891 can be tracked NOW for your location showing map with azimuth and elevation plus other details from your city location.







IsCatalogInMostPopularTable: catalog: 67045, numindb: 71
Update: records affected: 1



GetName: 67045 STARLINK-35891

Hit Count: updated at: Thu, 16 Apr 2026 06:04:36 GMT